一网星座-0655星 (ONEWEB-0655 )

导读 | 豆包AI

ONEWEB-0655是英国OneWeb(一网公司)低轨卫星互联网星座的成员,于2022年12月8日发射入轨。OneWeb由英国政府部分持有,计划建成由数百颗低轨卫星组成的全球星座,旨在为全球偏远地区、基础设施薄弱区域提供高速稳定的互联网接入服务,这颗卫星是OneWeb完成全球网络布局的重要组成部分,助力实现全球无缝网络覆盖的战略目标。

基本信息
目录编号:
54677
目录名称:
ONEWEB-0655
国际标识:
2022-166AM
轨道中心:
EARTH
卫星名称:
一网星座-0655星
卫星全名:
一网星座-0655星 (ONEWEB-0655 )
卫星状态:
在轨 (已飞行1192 天)
发射日期:
2022-12-08 UTC
国别 :
英国 (GB)
星等 :
--
轨道信息
数据来源 国际轨道数据 AOE轨道数据
星历时间 2026-03-14T06:11:51+0800
7小时前
查看轨道信息
2026-03-11T09:00:00+0800
3天前
查看轨道信息
半长轴 7555.896km 7555.889km
偏心率 0.0001497 0.0001412
轨道倾角 87.916° 87.916°
近地点辐角 102.501° 109.957°
升交点赤经 262.984° 263.560°
平近点角 257.630° 218.005°
近地点 1176.627km 1176.685km
远地点 1178.891km 1178.819km
周期 108.940分钟 108.940分钟
每日圈数 13.218246 13.218265
详细信息
平衡模式:
三轴稳定
覆盖范围:
全球
运营商:
一网卫星公司
运营商所在国:
英国
制造商(研发单位):
一网卫星公司
制造商所在国:
英国
使用方式:
暂无
卫星简介
OneWeb卫星网络由648颗重约125公斤的微型卫星组成,运行在1200公里的轨道上。 每颗卫星都能够提供至少每秒8千兆位的吞吐量,以使用其高吞吐量的Ku频段有效载荷为家庭和移动平台提供互联网接入。该卫星仍在工作。
2D轨道图
3D轨道图
轨道高度分析图
轨道倾角分析图
轨道综合分析图
查看轨道综合分析图